COSMOS 2251 DEB

Satellite information

Favourite Embed

Satellite Type and Status

DEBRISIN ORBIT

Key statistics

Satellite COSMOS 2251 DEB at a glance.

Uptime

11650

Days in orbit

Revolutions

≈ 14.3

Per day

Orbit

LEO

Low Earth Orbit

Inclination

74.0

Latest

Satellite identification and parameters

Extended collection of information and parameters for COSMOS 2251 DEB.

Object identification

Identified? True

Debris? True

Object name: COSMOS 2251 DEB

International designator: 1993-036DU

Object number (NORAD): 33915

Object ID (CCSDS): 33915

Country: COMMONWEALTH OF INDEPENDENT STATES (CIS)

Current information (Y/N): Y

RCS size: SMALL

Orbital parameters

Period: 100.395 minutes

Inclination: 74.0431 deg

SMA: 7155.435 km

Apoapsis: 855.444 km

Periapsis: 699.156 km

RAAN: 73.587 deg

Eccentricy: 0.0109209

Argument of periapsis: 219.5194 deg

Mean anomaly: 314.2661 deg

Mean motion: 14.3432876 rev/day

Mean motion (dot): 0.00001319 rev/day2

B* drag term: 0.00044811 1/REarth

Two-line elements (TLE)

Creation date: May 9, 2025, 2:46 a.m.

Reference frame: TEME

Reference center: EARTH

Epoch: May 8, 2025, 2:28 p.m. UTC

TLE line 0: 0 COSMOS 2251 DEB

TLE line 1: 1 33915U 93036DU 25128.60304102 .00001319 00000-0 44811-3 0 9991

TLE line 2: 2 33915 74.0431 73.5870 0109209 219.5194 314.2661 14.34328760846294

Live tracking on map

Real-time ground track for satellite COSMOS 2251 DEB.

In-orbit conjunctions

A list of the most updated potential collisions computed for object COSMOS 2251 DEB.

Target Orbit TCA Probability of collision Miss distance Type
NOAA 17 DEB SSO 2024-11-14 23:44:19 0.0001096349 715.0 (m) DEBRIS
SL-8 R/B LEO 2024-08-21 20:29:15 0.0002007832 133.0 (m) ROCKET BODY

Associated space launch

Military communications satellite. Destroyed in a collision with Iridium 33.

COSMOS 2251 DEB was lifted into orbit during the mission ‘Kosmos-3M | Strela-2M 51’, on board a Kosmos-3M space rocket.

The launch took place on June 16, 1993, 4:17 a.m. from 132/1 (132L).

For more information about the launch, click the button.

Launch to space Kosmos-3M | Strela-2M 51
Kosmos-3M | Strela-2M 51

Agency: N/A

Status: Launch Successful

Launch date: June 16, 1993, 4:17 a.m. UTC

Rocket: Kosmos-3M

Launch pad: 132/1 (132L)

Location: Plesetsk Cosmodrome, Russian Federation

...

Latest news about this satellite

There are no fresh news available about this satellite. Check back as we update our databases every day.


Newsletter sign-up

Weekly statistics, charts and insights to help you stay on top of the space industry.